Flag for Germany Weather past 2 weeks in Berlin, Berlin, Germany

Now
59 °F

Cool.


Feels Like: 59 °F
Forecast: 49 / 69 °F
Wind: 6 mph from Northeast

Location: Berlin-Tempelhof


UV Index: 3 (Moderate)

Visibility: N/A


Pressure: 29.97 "Hg

Humidity: 74%

Dew point: 51 °F

Location of BerlinLocation

Historic Weather in Berlin

°F

Berlin temperature yesterday

Maximum temperature yesterday: 50 °F (at 5:00 PM)
Minimum temperature yesterday: 43 °F (at 7:00 AM)
Average temperature yesterday: 47 °F

Past Weeks' High & Low Weather Summary

 TemperatureHumidityPressure
High69 °F (Apr 19, 5:00 PM)97% (Apr 19, 7:00 AM)30.45 "Hg (Apr 19, 7:00 AM)
Low35 °F (Apr 16, 7:00 AM)30% (Apr 16, 7:00 PM)29.69 "Hg (Apr 14, 9:00 AM)
Average50 °F71%30.02 "Hg
* Reported Apr 4 10:00 PM — Apr 19 10:00 PM, Berlin, Weather by CustomWeather, © 2014

Note: Actual official high and low records may vary slightly from our data, if they occured in-between our weather recording intervals... More about our weather records

Advertising

Historic Weather Conditions — Data for Previous 24 hours

 ConditionsComfort  
Time TempWeatherWind HumidityBarometerVisibility
10:00 PM
Apr 19
59 °FCool.6 mph74%29.97 "HgN/A
9:00 PM61 °FCool.6 mph71%29.97 "HgN/A
8:00 PM64 °FMild.6 mph67%29.96 "HgN/A
7:00 PM67 °FMild.7 mph58%29.96 "HgN/A
6:00 PM68 °FMild.7 mph56%29.96 "HgN/A
5:00 PM69 °FMild.8 mph54%29.98 "HgN/A
4:00 PM68 °FMild.7 mph55%29.99 "HgN/A
3:00 PM67 °FMild.7 mph62%30.01 "HgN/A
2:00 PM65 °FMild.8 mph63%30.03 "HgN/A
1:00 PM63 °FMild.7 mph69%30.04 "HgN/A
12:00 PM57 °FCool.6 mph74%30.06 "HgN/A
11:00 AM51 °FCool.6 mph77%30.08 "HgN/A
10:00 AM46 °FCool.6 mph85%30.09 "HgN/A
9:00 AM44 °FQuite cool.3 mph90%30.09 "HgN/A
8:00 AM40 °FChilly.2 mph97%30.09 "HgN/A
7:00 AM37 °FChilly.3 mph97%30.07 "HgN/A
6:00 AM37 °FChilly.3 mph96%30.07 "HgN/A
5:00 AM38 °FChilly.1 mph94%30.06 "HgN/A
4:00 AM38 °FChilly.1 mph93%30.05 "HgN/A
3:00 AM39 °FChilly.1 mph94%30.04 "HgN/A
2:00 AM41 °FQuite cool.1 mph92%30.02 "HgN/A
1:00 AM41 °FQuite cool.1 mph92%30.01 "HgN/A
12:00 AM44 °FQuite cool.2 mph88%29.99 "HgN/A
11:00 PM
Apr 18
45 °FCool.2 mph86%29.97 "HgN/A
10:00 PM46 °FCool.2 mph84%29.94 "HgN/A
Weather by CustomWeather, © 2014

See weather overview